Regional Weather Roundup
Issued by NWS Green Bay, WI

Home | Current Version | Previous Version | Graphics & Text | Print | Product List | Glossary On
Versions: 1 2 3 4 5 6 7 8 9 10 11 12 13 14 15 16 17 18 19 20 21 22 23 24 25 26 27 28 29 30 31 32 33 34 35 36 37 38 39 40 41 42 43 44 45 46 47 48 49 50
000
ASUS43 KGRB 240011
RWRGRB

NORTH-CENTRAL AND NORTHEAST WISCONSIN REGIONAL WEATHER ROUNDUP
NATIONAL WEATHER SERVICE GREEN BAY WI
700 PM CDT MON OCT 23 2017

WIZ005-009-010>012-018-019-240100-
NORTH CENTRAL WISCONSIN

CITY           SKY/WX    TMP DP  RH WIND       PRES   REMARKS
IRONWOOD       MOCLDY    53  44  71 W8        29.68S
MANITOWISH WTR CLOUDY    48  48 100 CALM      29.67R
ARBOR VITAE    CLOUDY    52  48  86 CALM      29.66S
EAGLE RIVER    LGT RAIN  47  42  83 CALM      29.65S
LAND O LAKES   CLOUDY    49  42  77 CALM      29.67F
RHINELANDER    LGT RAIN  48  47  96 W5        29.66F
PHILLIPS       LGT RAIN  52  44  74 NW5       29.67R
ANTIGO         CLOUDY    45  43  91 CALM      29.65F
TOMAHAWK       CLOUDY    46  42  86 CALM      29.66S
MERRILL        LGT RAIN  50  43  77 NW3       29.66S
$$

WIZ013-073-240100-
NORTHEAST WISCONSIN

CITY           SKY/WX    TMP DP  RH WIND       PRES   REMARKS
IRON MOUNTAIN  MOCLDY    46  40  79 NW3       29.64F
MARINETTE      CLOUDY    49  47  93 E3        29.65F
OCONTO         CLOUDY    47  46  97 CALM      29.64F
$$

WIZ017-030-035>037-045-240100-
CENTRAL WISCONSIN

CITY           SKY/WX    TMP DP  RH WIND       PRES   REMARKS
MEDFORD        CLOUDY    49  43  81 W7        29.66F
WAUSAU         LGT RAIN  50  44  80 NW5       29.63F
MOSINEE        CLOUDY    48  45  87 W8        29.65F
MARSHFIELD     CLOUDY    50  43  77 W6        29.66F
WISC RAPIDS    LGT RAIN  51  44  77 NW6       29.66F
STEVENS POINT  CLOUDY    51  42  70 W5        29.65F
WAUPACA        CLOUDY    51  48  90 CALM      29.64F
SHAWANO        CLOUDY    51  47  85 CALM      29.64F
CLINTONVILLE   CLOUDY    50  45  81 CALM      29.64F
WAUTOMA        CLOUDY   N/A N/A N/A W6        29.65F
$$

WIZ038-039-048-051-240100-
FOX VALLEY

CITY           SKY/WX    TMP DP  RH WIND       PRES   REMARKS
NWS GREEN BAY  CLOUDY    50  48  93 NE5       29.64F
APPLETON       CLOUDY    50  39  66 CALM      29.63F
OSHKOSH        CLOUDY    50  45  83 CALM      29.63F
FOND DU LAC    CLOUDY    49  45  86 CALM      29.64F
$$

WIZ022-050-052-240100-
EAST CENTRAL WISCONSIN

CITY           SKY/WX    TMP DP  RH WIND       PRES   REMARKS
EPHRAIM        CLOUDY    48  44  85 CALM      29.63F
WASHINGTON ISL NOT AVBL
STURGEON BAY   CLOUDY    49  47  93 N5        29.64F
MANITOWOC      CLOUDY    50  45  83 CALM      29.64
SHEBOYGAN      CLOUDY    49  47  93 CALM      29.64F
$$

LMZ563-521-522-541>543-240100-
LAKESHORE

STATION/POSITION TIME  TEMP    WIND        PRES    VSBY  WAVE
                       AIR SEA DIR/SP/G                  HT/PER
                 (UTC) (F)     (DEG/KT/KT) (MB)    (MI)  (FT/S)
SHEBOYGAN LKSHOR 0000   51     340/  6/  6 1003.7F
KEWAUNEE LKSHORE 2348                      1003.1F
NORTHPORT PIER   2340   53      10/  5/  7 1003.7F
N MID LAKE BUOY  2350   54 57   10/ 10/ 12 1003.7F         1
S GREEN BAY BUOY 2330   53 58  340/  6/  8 1004.2F
SISTER BAY LKSHO 0004   51        CALM       N/A
MENOMINEE LKSHOR 2348                      1003.6F
$$




USA.gov is the U.S. government's official web portal to all federal, state and local government web resources and services.